Weather History for Charles City, IA

Change the Weather History Date:

Tuesday, May 6, 2014

  Actual Average Record
Temperature  
Mean Temperature 55 °F -  
Max Temperature 68 °F 67 °F 87 °F (1962)
Min Temperature 42 °F 42 °F 24 °F (1989)
Degree Days  
Heating Degree Days 10    
Growing Degree Days 5 (Base 50)    
Moisture  
Dew Point 37 °F    
Average Humidity 45    
Maximum Humidity 62    
Minimum Humidity 34    
Precipitation  
Precipitation 0.00 in - - ()
Sea Level Pressure  
Sea Level Pressure 29.84 in    
Wind  
Wind Speed 19 mph (ESE)    
Max Wind Speed 28 mph    
Max Gust Speed 37 mph    
Visibility 10 miles    
Events      
Averages and records for this station are not official NWS values.
T = Trace of Precipitation, MM = Missing Value Source: NWS Daily Summary

Daily Weather History Graph

Daily Weather History Graph

Search for Another Location

Airport:

Trip Planner

Search our weather history database for the weather conditions in past years. The results will help you decide how hot, cold, wet, or windy it might be!

Date:

Astronomy

May. 06, 2014 Rise Set
Actual Time 5:57 AM CDT 8:17 PM CDT
Civil Twilight 5:25 AM CDT 8:49 PM CDT
Nautical Twilight 4:46 AM CDT 9:28 PM CDT
Astronomical Twilight 4:03 AM CDT 10:12 PM CDT
Moon 12:15 PM CDT (5/6) 1:35 AM CDT (5/6)
Length of Visible Light 15h 23m
Length of Day
14h 19m
Waxing Crescent, 46% of the Moon is Illuminated
May 6
Waxing Crescent
May 6
First Quarter
May 14
Full
May 21
Last Quarter
May 28
New

Hourly Weather History & Observations

Time (CDT) Temp. Windchill Dew Point Humidity Pressure Visibility Wind Dir Wind Speed Gust Speed Precip Events Conditions
12:15 AM 50.0 °F - 35.6 °F 58% 29.95 in 10.0 mi ESE 12.7 mph - N/A   Clear
12:35 AM 50.0 °F - 35.6 °F 58% 29.95 in 10.0 mi East 13.8 mph - N/A   Clear
12:55 AM 50.0 °F - 35.6 °F 58% 29.95 in 10.0 mi East 12.7 mph - N/A   Clear
1:15 AM 48.2 °F - 35.6 °F 62% 29.94 in 10.0 mi East 12.7 mph - N/A   Clear
1:35 AM 48.2 °F - 33.8 °F 58% 29.94 in 10.0 mi East 13.8 mph - N/A   Clear
1:55 AM 48.2 °F - 33.8 °F 58% 29.93 in 10.0 mi East 13.8 mph - N/A   Clear
2:15 AM 46.4 °F 40.4 °F 33.8 °F 62% 29.93 in 10.0 mi East 13.8 mph - N/A   Clear
6:55 AM 42.8 °F 34.8 °F 30.2 °F 61% 29.94 in 10.0 mi East 17.3 mph 27.6 mph N/A   Clear
7:15 AM 44.6 °F 37.4 °F 32.0 °F 61% 29.94 in 10.0 mi East 16.1 mph 23.0 mph N/A   Clear
7:35 AM 46.4 °F 39.5 °F 30.2 °F 53% 29.95 in 10.0 mi ESE 17.3 mph 27.6 mph N/A   Clear
7:55 AM 46.4 °F 39.2 °F 30.2 °F 53% 29.94 in 10.0 mi East 18.4 mph 29.9 mph N/A   Clear
8:15 AM 48.2 °F - 32.0 °F 54% 29.94 in 10.0 mi East 20.7 mph 26.5 mph N/A   Clear
8:55 AM 50.0 °F - 32.0 °F 50% 29.93 in 10.0 mi East 21.9 mph - N/A   Partly Cloudy
9:15 AM 51.8 °F - 33.8 °F 50% 29.93 in 10.0 mi ESE 27.6 mph - N/A   Clear
9:35 AM 53.6 °F - 33.8 °F 47% 29.93 in 10.0 mi ESE 25.3 mph - N/A   Clear
9:55 AM 53.6 °F - 35.6 °F 51% 29.92 in 10.0 mi ESE 25.3 mph 33.4 mph N/A   Clear
10:15 AM 55.4 °F - 35.6 °F 47% 29.92 in 10.0 mi ESE 19.6 mph 33.4 mph N/A   Clear
10:55 AM 57.2 °F - 35.6 °F 44% 29.90 in 10.0 mi ESE 25.3 mph - N/A   Clear
11:15 AM 59.0 °F - 35.6 °F 42% 29.89 in 10.0 mi ESE 23.0 mph 33.4 mph N/A   Clear
11:35 AM 59.0 °F - 35.6 °F 42% 29.90 in 10.0 mi ESE 24.2 mph 32.2 mph N/A   Clear
11:55 AM 60.8 °F - 35.6 °F 39% 29.89 in 10.0 mi ESE 19.6 mph 28.8 mph N/A   Clear
12:15 PM 60.8 °F - 35.6 °F 39% 29.89 in 10.0 mi East 24.2 mph - N/A   Clear
12:35 PM 62.6 °F - 33.8 °F 34% 29.87 in 10.0 mi East 20.7 mph 27.6 mph N/A   Clear
12:55 PM 62.6 °F - 35.6 °F 37% 29.86 in 10.0 mi ESE 20.7 mph 29.9 mph N/A   Clear
1:15 PM 62.6 °F - 35.6 °F 37% 29.86 in 10.0 mi ESE 24.2 mph 31.1 mph N/A   Clear
1:35 PM 64.4 °F - 37.4 °F 37% 29.85 in 10.0 mi East 24.2 mph - N/A   Clear
1:55 PM 64.4 °F - 37.4 °F 37% 29.83 in 10.0 mi ESE 17.3 mph 33.4 mph N/A   Clear
2:15 PM 66.2 °F - 37.4 °F 35% 29.81 in 10.0 mi ESE 25.3 mph 34.5 mph N/A   Clear
2:35 PM 66.2 °F - 37.4 °F 35% 29.81 in 10.0 mi ESE 20.7 mph 28.8 mph N/A   Clear
2:55 PM 66.2 °F - 39.2 °F 37% 29.80 in 10.0 mi SE 24.2 mph 32.2 mph N/A   Clear
3:15 PM 66.2 °F - 39.2 °F 37% 29.78 in 10.0 mi SE 25.3 mph 32.2 mph N/A   Clear
3:35 PM 68.0 °F - 41.0 °F 37% 29.78 in 10.0 mi ESE 24.2 mph 33.4 mph N/A   Clear
3:55 PM 68.0 °F - 41.0 °F 37% 29.76 in 10.0 mi East 27.6 mph 33.4 mph N/A   Clear
4:15 PM 68.0 °F - 39.2 °F 35% 29.75 in 10.0 mi ESE 25.3 mph 36.8 mph N/A   Clear
4:35 PM 68.0 °F - 41.0 °F 37% 29.75 in 10.0 mi ESE 26.5 mph 32.2 mph N/A   Clear
4:55 PM 68.0 °F - 41.0 °F 37% 29.75 in 10.0 mi ESE 24.2 mph 31.1 mph N/A   Clear
5:15 PM 66.2 °F - 41.0 °F 40% 29.73 in 10.0 mi East 25.3 mph 33.4 mph N/A   Clear
5:35 PM 66.2 °F - 41.0 °F 40% 29.74 in 10.0 mi East 23.0 mph 31.1 mph N/A   Clear
5:55 PM 66.2 °F - 41.0 °F 40% 29.74 in 10.0 mi East 24.2 mph 35.7 mph N/A   Clear
6:15 PM 66.2 °F - 41.0 °F 40% 29.74 in 10.0 mi ESE 23.0 mph 29.9 mph N/A   Clear
6:35 PM 66.2 °F - 41.0 °F 40% 29.74 in 10.0 mi ESE 21.9 mph 29.9 mph N/A   Clear
6:55 PM 64.4 °F - 41.0 °F 42% 29.76 in 10.0 mi ESE 18.4 mph 28.8 mph N/A   Clear
7:15 PM 64.4 °F - 41.0 °F 42% 29.76 in 10.0 mi ESE 15.0 mph 23.0 mph N/A   Scattered Clouds
7:35 PM 64.4 °F - 39.2 °F 40% 29.77 in 10.0 mi ESE 23.0 mph - N/A   Overcast
7:55 PM 64.4 °F - 39.2 °F 40% 29.77 in 10.0 mi East 17.3 mph 26.5 mph N/A   Mostly Cloudy
8:15 PM 62.6 °F - 39.2 °F 42% 29.76 in 10.0 mi East 16.1 mph 24.2 mph N/A   Mostly Cloudy
8:35 PM 62.6 °F - 39.2 °F 42% 29.77 in 10.0 mi East 17.3 mph - N/A   Mostly Cloudy
8:55 PM 60.8 °F - 39.2 °F 45% 29.77 in 10.0 mi East 21.9 mph - N/A   Overcast
9:15 PM 60.8 °F - 39.2 °F 45% 29.77 in 10.0 mi East 21.9 mph 31.1 mph N/A   Overcast
9:35 PM 59.0 °F - 39.2 °F 48% 29.78 in 10.0 mi East 18.4 mph 25.3 mph N/A   Overcast
10:15 PM 59.0 °F - 39.2 °F 48% 29.78 in 10.0 mi East 17.3 mph 24.2 mph N/A   Overcast
10:35 PM 57.2 °F - 39.2 °F 51% 29.77 in 10.0 mi East 19.6 mph - N/A   Overcast
10:55 PM 57.2 °F - 39.2 °F 51% 29.77 in 10.0 mi East 20.7 mph 31.1 mph N/A   Mostly Cloudy
11:15 PM 57.2 °F - 39.2 °F 51% 29.76 in 10.0 mi East 20.7 mph 29.9 mph N/A   Overcast
11:55 PM 57.2 °F - 39.2 °F 51% 29.75 in 10.0 mi East 18.4 mph 27.6 mph N/A   Overcast